Content
SEND FEEDBACK

Daily
Averages
Monthly
Summary
Mexico

CANCUN, QUINTANA ROO


Home > North America > Mexico > Quintana Roo
Elevation: 9 meters     Latitude: 21 09N     Longitude: 086 49W

WEATHER
 
SELECT A DAY
Number of Records: 166,321;   Date Range: 1/1/95 - 10/19/14
 
SHARE

PRINT THIS DATA

[ ← Previous Day ]
WEATHER ALMANAC - 13 MAY, 2014
[ Next Day → ]
[ °F ]   °C
Weather ElementAverageHighLow
Temperature27.3 °C30 °C (11:44 am)24 °C (5:46 am)
Dewpoint22.2 °C23 °C (3:43 pm)21 °C (2:43 am)
Humidity74 %83 % (5:46 am)62 % (11:44 am)
Barometer1011.9 hPa1013.5 hPa (11:44 am)1010.5 hPa (3:48 am)
Wind Speed11.3 km/h22.2 km/h (9:43 am)
Weather ElementAverage
Visibility11.3 km
Wind DirectionE (88.1 °)

Weather ElementTotal
Precipitation---
Cooling Degree Days8.7 (Base 18.3)
Growing Degree Days17 (Base 10)
Averaged from 21 records on 13 May, 2014
WEATHER CONDITIONS BREAKOUT
WIND DIRECTION BREAKOUT
WEATHER BY HOUR - 13 MAY, 2014
[ °F ]   °C
Local TimeTemperatureDewpointHumidityBarometerVisibilityWind DirectionWind SpeedGust SpeedPrecipitationEventsConditions
1:44 AM26 °C22 °C78 %1012.2 hPa11.3 kmEast (100°)13 km/hClear
2:43 AM26 °C21 °C74 %1011.9 hPa11.3 kmEast (100°)9.3 km/hClear
3:48 AM25 °C21 °C78 %1010.5 hPa11.3 kmEast (100°)11.1 km/hClear
4:47 AM25 °C21 °C78 %1011.5 hPa11.3 kmEast (100°)18.5 km/hPartly Cloudy
5:46 AM24 °C21 °C83 %1011.5 hPa11.3 kmEast (80°)9.3 km/hScattered Clouds
6:45 AM24 °C21 °C83 %1011.2 hPa11.3 kmEast (100°)9.3 km/hScattered Clouds
8:41 AM27 °C22 °C74 %1013.2 hPa11.3 kmNE (50°)13 km/hScattered Clouds
9:43 AM29 °C22 °C66 %1012.9 hPa11.3 kmESE (110°)22.2 km/hScattered Clouds
11:44 AM30 °C22 °C62 %1013.5 hPa11.3 kmENE (60°)11.1 km/hScattered Clouds
12:49 PM30 °C22 °C62 %1012.5 hPa11.3 kmENE (70°)9.3 km/hScattered Clouds
1:43 PM30 °C22 °C62 %1012.9 hPa11.3 kmESE (110°)22.2 km/hScattered Clouds
2:44 PM30 °C22 °C62 %1011.9 hPa11.3 kmEast (100°)13 km/hScattered Clouds
3:43 PM29 °C23 °C70 %1010.5 hPa11.3 kmESE (120°)9.3 km/hScattered Clouds
4:40 PM29 °C23 °C70 %1010.8 hPa11.3 kmEast (90°)11.1 km/hScattered Clouds
5:42 PM29 °C23 °C70 %1010.5 hPa11.3 kmESE (120°)13 km/hScattered Clouds
6:41 PM28 °C23 °C74 %1010.5 hPa11.3 kmENE (70°)7.4 km/hMostly Cloudy
7:40 PM27 °C23 °C79 %1010.8 hPa11.3 kmEast (100°)5.6 km/hMostly Cloudy
8:40 PM27 °C23 °C79 %1011.5 hPa11.3 kmEast (90°)5.6 km/hScattered Clouds
9:47 PM26 °C23 °C83 %1011.5 hPa11.3 kmNE (50°)9.3 km/hMostly Cloudy
10:45 PM26 °C23 °C83 %1013.2 hPa11.3 kmEast (80°)7.4 km/hMostly Cloudy
11:46 PM26 °C23 °C83 %1013.2 hPa11.3 kmNE (50°)7.4 km/hMostly Cloudy
Hourly data recorded from MMUN, located 0 kilometers away from Cancun, Quintana Roo







STORIES FROM OUR PARTNERS